GFSWCAN_500_rhum_021.txt.gz
RH
100 100 95 42 35 28 39 69 99 100 97 80 56 40 35 26 21 19 6 4 4 4 4 4 5 5 4 4 5 7 8 13 20 28 23 16 16 16 15 16 17 18 18 20 19 19 18 19 19 21 23 26 29 41
100 100 100 89 35 31 26 40 75 100 100 100 89 58 42 33 29 20 12 7 5 5 5 4 4 6 4 4 4 14 9 18 21 30 24 19 17 17 17 17 18 18 20 21 20 20 23 25 25 23 26 29 41 47
100 100 100 97 57 31 28 29 42 70 98 98 95 95 64 43 30 29 25 18 11 8 7 5 6 7 6 7 7 10 15 22 23 30 28 24 20 19 19 19 20 19 20 20 21 29 36 36 28 28 30 39 49 60
100 100 100 99 83 41 30 29 31 38 63 75 72 76 87 72 45 34 28 26 23 20 14 12 12 12 12 11 14 17 21 20 21 32 32 28 26 20 19 20 20 26 24 26 34 37 31 30 32 33 43 55 55 72
97 100 100 100 100 96 46 30 29 32 45 60 64 61 59 60 55 43 30 27 26 24 22 22 19 22 20 19 22 22 23 25 27 29 28 29 28 27 20 18 19 28 27 29 44 34 36 36 37 48 57 57 73 91
99 94 100 100 87 79 93 37 26 29 34 41 52 58 56 50 46 41 37 30 30 28 24 23 29 28 23 22 23 22 20 22 24 22 21 19 22 22 17 17 19 32 40 41 35 40 42 40 46 57 64 81 90 92
100 100 100 100 100 74 26 33 24 27 27 29 32 39 43 44 42 40 39 41 37 34 30 25 22 25 27 25 28 28 30 30 26 22 21 22 23 21 18 18 31 43 49 45 46 45 43 47 56 75 93 91 89 84
100 100 100 100 100 100 92 48 21 21 23 24 24 27 30 30 28 28 32 36 37 37 34 22 20 26 33 28 29 29 28 27 23 22 20 24 26 31 24 42 48 52 51 54 53 50 52 64 91 91 93 92 90 91
100 100 100 100 100 100 100 99 83 47 25 20 23 35 28 21 20 22 22 20 19 22 22 24 30 36 36 43 51 52 55 55 43 37 43 43 35 33 50 52 50 56 55 62 79 75 84 98 96 92 98 99 100 100
100 100 100 100 100 100 100 100 100 96 66 73 88 97 94 79 51 40 35 30 28 27 19 18 21 22 35 47 59 69 70 66 51 45 50 39 27 32 47 56 62 66 67 66 73 98 98 100 99 100 100 98 94 98
100 100 100 100 97 100 100 100 100 100 100 100 97 94 100 100 97 93 78 67 73 67 60 51 33 35 36 32 39 50 39 36 29 26 36 25 24 51 76 77 80 74 75 95 100 100 100 100 99 100 99 99 99 100
54 96 99 100 100 100 100 100 100 100 100 100 95 95 100 100 100 100 84 79 73 68 57 56 71 88 93 99 100 99 98 87 66 59 77 66 68 74 76 76 80 85 96 100 100 100 99 94 100 100 100 100 100 100
10 45 70 77 90 95 95 100 100 99 100 100 94 100 100 100 100 83 70 71 68 65 66 74 85 96 97 100 100 100 100 92 87 83 77 72 77 80 83 84 83 81 93 93 90 94 100 100 100 100 100 100 100 100
9 8 22 25 31 57 84 60 66 84 91 95 97 99 100 100 93 84 73 70 62 60 65 72 80 88 86 100 100 100 100 98 98 87 83 90 89 82 84 87 91 90 88 95 100 100 100 100 100 100 100 100 97 87
9 9 9 8 8 11 22 28 36 45 64 80 90 98 100 100 100 99 100 100 98 88 84 81 76 81 89 100 98 100 100 100 99 100 97 92 88 85 92 97 99 100 100 100 100 100 100 100 100 100 99 86 68 47
12 10 8 8 9 10 11 11 15 19 21 29 44 72 81 90 100 100 100 100 100 100 100 100 100 100 100 100 100 100 100 100 100 99 99 100 100 100 100 100 100 100 100 100 100 100 100 100 98 88 60 38 31 33
10 10 10 11 10 8 7 8 9 9 9 8 8 12 32 51 60 62 77 94 100 100 100 100 100 100 100 100 100 100 100 100 100 100 100 100 100 100 100 100 100 100 100 100 100 99 96 80 51 32 28 33 32 31
10 10 9 9 9 8 8 9 9 8 7 7 7 7 9 14 23 29 37 46 55 65 82 90 97 100 100 100 100 100 100 100 100 100 100 100 100 100 100 100 100 100 98 96 87 61 34 25 28 31 31 31 30 28
11 11 11 11 10 10 10 9 9 9 9 10 10 9 8 7 8 10 11 14 22 47 70 88 97 100 100 100 100 100 100 100 100 100 100 100 100 100 99 95 87 71 46 29 24 22 24 28 28 28 29 30 27 25
14 13 12 13 13 13 12 11 11 10 11 12 12 12 12 12 16 16 19 22 24 26 36 50 70 83 88 90 91 93 96 95 94 92 87 77 64 41 28 24 23 24 24 26 27 28 29 27 31 32 28 25 25 34
18 17 16 16 16 15 14 14 13 12 11 11 12 12 13 13 15 20 27 41 49 81 64 65 65 62 62 59 56 53 47 41 32 23 18 17 17 19 21 23 26 28 30 30 32 37 38 34 30 26 25 31 33 32
20 19 18 18 17 16 16 14 13 12 11 12 12 18 23 36 60 87 91 85 79 68 63 61 58 50 42 37 31 28 24 21 19 17 16 20 27 31 33 34 34 36 38 42 41 36 29 25 24 29 31 29 27 30
16 15 16 16 16 15 13 12 11 11 11 12 17 29 55 96 100 91 77 74 65 53 48 46 42 39 34 33 30 24 21 22 30 29 30 29 31 34 35 39 42 42 40 35 38 35 30 32 35 33 28 26 24 23
11 11 10 10 9 9 9 12 17 33 54 62 74 75 75 72 82 82 77 78 76 69 53 41 35 31 22 18 19 22 29 36 36 38 38 38 42 44 49 48 48 49 43 41 34 32 37 37 30 27 26 23 19 17
12 50 39 24 11 11 11 47 78 91 96 99 78 54 60 82 96 90 83 78 62 44 34 29 24 21 22 23 24 30 36 41 41 45 49 52 52 54 53 52 49 44 41 38 40 39 34 30 29 27 24 21 19 19
100 100 98 88 69 40 62 79 82 97 100 69 49 59 73 75 88 86 62 36 31 31 28 26 26 29 30 29 33 38 43 46 47 47 56 52 49 50 44 38 36 40 45 42 37 35 34 32 29 26 24 22 22 28
100 91 86 92 97 94 100 98 100 100 100 97 96 100 97 76 53 36 33 30 30 32 37 42 42 40 39 41 43 46 53 56 55 55 51 46 38 35 38 47 49 44 40 38 38 37 34 31 28 26 25 24 26 32
91 97 100 100 100 97 100 100 100 100 100 92 66 47 40 38 37 34 34 37 42 43 43 43 44 46 49 49 49 50 46 43 43 43 38 34 41 49 50 45 40 38 37 36 35 33 29 26 24 23 23 24 28 37
100 100 100 100 100 100 99 93 85 75 64 52 46 45 45 46 50 50 46 44 42 44 44 42 42 42 42 42 40 36 36 36 34 35 45 53 52 48 45 41 37 34 31 28 25 23 21 19 18 18 20 24 32 41
100 99 99 97 96 100 96 86 78 72 68 66 64 60 57 52 48 43 42 44 45 43 38 36 35 39 41 42 42 39 41 46 46 45 46 43 39 34 30 27 25 23 20 18 17 16 16 16 18 20 21 25 36 53
100 100 100 96 96 94 88 82 76 71 64 56 49 41 37 37 37 40 40 40 39 39 44 54 59 58 54 51 49 48 45 42 39 35 31 28 27 26 24 21 19 18 18 17 14 13 14 16 17 23 28 34 59 92
81 79 76 72 70 62 57 50 44 41 38 36 35 36 41 42 41 42 59 62 64 63 57 48 40 37 35 33 32 32 31 30 30 29 28 26 24 21 21 22 21 20 17 17 17 16 13 12 13 17 24 42 87 100
58 54 49 44 39 36 37 36 35 36 37 38 42 48 56 56 54 53 49 47 46 45 43 40 37 34 31 30 30 30 30 29 28 26 24 23 23 24 23 22 21 23 25 29 23 14 14 16 17 17 20 44 100 100

GFSWCAN_500_rhum_024.txt.gz
RH
80 84 99 100 97 100 100 100 100 84 69 32 45 62 37 14 8 8 8 7 10 11 11 11 9 8 7 7 6 6 6 6 6 8 11 15 24 24 17 14 18 19 19 21 20 20 19 20 19 20 35 51 37 29
99 100 100 91 94 100 100 100 100 82 71 61 46 53 61 33 16 9 7 6 6 7 9 9 9 8 6 5 5 5 5 5 5 6 8 14 21 23 25 21 23 21 22 21 21 21 22 20 21 24 40 42 33 31
100 100 98 73 82 100 100 100 100 99 84 70 57 47 38 42 41 31 13 6 6 6 6 7 7 6 5 4 4 5 6 6 7 9 16 23 28 31 35 34 28 28 26 24 25 27 24 22 21 28 50 40 32 36
100 100 100 80 55 68 89 100 100 100 100 93 76 61 51 41 31 23 20 16 13 10 7 7 6 5 4 4 4 5 9 17 16 18 19 27 32 31 32 33 32 36 30 31 24 23 22 25 36 52 37 36 40 40
100 99 99 79 41 36 42 64 96 100 100 98 97 95 85 59 45 37 30 25 23 19 14 13 9 8 8 7 7 6 7 12 19 26 29 36 41 38 31 27 28 37 33 26 22 25 26 45 54 42 43 46 44 46
100 100 100 100 76 40 37 37 44 63 87 94 97 90 85 86 86 79 50 37 31 25 24 23 24 20 17 16 17 20 24 25 25 26 24 22 28 26 17 16 22 35 34 30 27 30 40 46 47 49 51 49 56 76
100 99 100 100 100 88 50 39 33 32 38 58 71 75 67 60 60 60 67 65 60 46 29 24 22 24 24 24 28 31 36 34 29 24 21 24 28 24 18 18 38 33 36 42 49 52 48 46 46 50 61 77 100 98
100 100 100 100 100 100 95 67 43 33 30 32 40 45 50 53 53 50 49 47 46 47 46 45 36 35 35 34 34 36 34 32 27 26 24 29 25 26 18 47 50 53 53 49 47 44 44 50 56 68 80 87 97 98
100 99 100 100 99 100 99 94 94 42 30 27 28 30 32 34 38 42 43 42 39 34 30 30 31 33 36 44 51 55 56 51 40 38 46 42 37 33 55 57 52 50 44 40 44 66 77 77 75 89 100 99 100 100
98 100 100 100 100 100 100 75 55 73 75 48 28 27 26 25 28 26 29 27 24 21 20 18 18 17 26 32 40 49 49 47 39 40 49 37 28 34 40 37 38 50 55 54 81 83 82 81 89 100 100 100 100 95
93 92 91 96 99 100 100 100 99 59 30 25 24 23 23 24 28 42 44 30 21 19 20 21 27 42 66 74 61 55 60 69 46 34 39 36 37 53 50 56 78 79 84 90 96 99 98 96 96 100 97 95 96 99
100 100 91 88 88 93 100 100 100 99 97 83 65 58 43 57 86 97 84 75 71 66 64 70 84 100 98 88 87 93 99 94 78 72 71 57 62 64 71 76 75 75 76 82 91 98 100 100 99 98 99 100 100 100
100 100 100 99 88 82 85 97 100 100 100 100 100 100 100 99 97 81 70 69 77 75 78 88 99 100 100 100 100 100 99 90 90 84 75 68 78 81 76 72 68 70 75 76 78 80 87 100 100 100 100 100 100 100
82 81 98 99 100 100 98 94 97 100 100 100 100 100 100 96 83 74 74 75 74 72 72 77 83 82 94 100 100 100 100 100 96 83 76 78 78 73 74 75 78 78 74 76 84 92 99 100 100 100 100 100 100 100
8 26 43 58 63 90 98 99 100 100 100 100 100 100 97 95 95 94 89 81 76 73 70 66 69 78 86 100 100 100 100 100 98 90 85 86 83 79 79 82 86 94 100 100 100 100 100 100 100 100 100 100 100 89
8 7 11 10 12 19 56 82 69 76 77 86 88 80 89 97 98 96 93 90 89 87 85 88 92 97 99 99 100 100 100 100 98 92 93 95 94 97 99 100 100 100 100 100 100 100 100 100 100 100 96 68 40 26
12 9 7 7 6 6 7 10 20 25 18 37 37 41 46 48 56 66 76 85 96 100 100 100 100 100 100 100 100 100 100 100 100 100 100 100 100 100 100 100 100 100 100 100 100 100 100 100 81 58 37 26 25 29
10 9 9 9 9 8 7 7 7 7 8 9 11 12 12 12 12 12 19 33 51 62 67 65 68 69 72 81 93 100 100 100 100 100 100 100 100 100 100 100 100 100 100 100 96 82 61 43 30 26 25 25 26 29
10 10 10 9 8 8 8 8 8 8 7 7 7 8 8 8 7 7 7 7 8 9 11 14 17 19 23 40 75 100 100 100 100 100 100 100 100 100 99 97 92 86 74 51 32 25 26 27 28 29 30 29 26 28
17 15 12 11 11 10 10 10 10 10 10 10 9 9 8 8 8 9 9 9 10 10 10 13 15 18 28 42 56 69 72 69 63 56 54 48 43 34 29 25 21 18 18 21 25 27 29 31 34 33 31 31 31 28
16 16 16 16 14 13 12 12 12 12 12 12 11 10 10 9 9 9 9 10 11 13 13 18 31 51 47 48 52 51 53 54 49 36 28 24 22 19 17 15 15 18 23 27 28 31 34 36 36 34 31 29 28 28
14 15 16 17 17 16 16 16 16 15 14 13 11 11 10 10 10 11 14 17 24 33 52 68 67 63 57 54 53 46 38 37 34 28 23 18 16 16 19 26 30 31 32 34 35 37 38 37 35 34 34 33 35 38
12 11 12 12 13 13 13 13 13 13 13 12 12 11 10 10 12 22 30 60 73 83 76 72 67 56 50 50 51 44 28 21 20 18 17 17 21 31 38 40 39 37 36 36 39 43 43 40 38 36 36 38 38 36
12 11 11 11 11 11 11 12 12 12 11 11 11 12 14 20 36 56 70 74 88 86 77 80 79 76 70 53 35 25 20 19 20 21 22 24 28 36 43 48 48 47 45 42 42 42 37 34 39 44 44 41 38 37
11 12 11 11 11 11 11 11 10 10 10 14 25 51 70 90 86 70 61 82 100 97 82 68 59 43 37 26 22 23 25 28 31 31 27 29 32 40 47 48 49 49 45 44 41 37 37 46 50 47 43 40 39 37
21 17 14 23 21 18 17 12 13 27 35 74 98 100 100 94 66 50 64 100 85 73 70 59 45 31 26 27 30 33 35 34 32 33 35 42 49 49 48 42 40 41 41 39 43 47 47 44 40 38 36 34 32 29
46 74 92 100 95 88 90 74 56 94 100 100 90 100 100 96 64 76 92 77 68 55 38 31 29 30 35 38 38 38 39 46 48 42 38 38 39 40 38 35 32 32 34 42 43 40 35 31 28 26 24 22 20 19
100 100 100 100 99 100 100 100 100 100 99 92 97 100 100 100 98 79 56 46 41 38 38 41 47 48 46 40 40 43 43 39 35 34 41 47 46 46 45 44 41 38 36 32 28 25 24 22 21 19 17 17 16 17
92 99 92 96 99 100 100 100 100 100 100 100 100 100 95 88 75 64 51 48 51 55 56 53 45 41 38 36 37 37 36 43 56 57 51 46 43 41 38 36 32 29 28 28 25 22 20 19 18 17 14 13 14 17
100 100 100 100 100 100 99 98 96 93 90 88 84 77 73 70 70 69 68 64 56 46 40 39 38 38 38 39 42 48 50 45 38 35 33 32 32 31 31 30 30 28 25 22 22 23 22 19 18 18 20 18 14 14
100 98 96 92 92 90 88 83 77 74 73 73 71 67 65 58 52 45 41 41 40 38 38 40 44 47 46 45 45 43 40 37 33 30 28 27 26 27 27 26 24 23 24 25 23 20 18 19 21 26 25 16 15 16
95 96 93 88 84 77 72 68 62 57 52 46 40 37 34 34 34 34 40 42 44 46 48 48 48 51 54 54 49 43 37 33 30 28 26 26 26 25 25 26 26 26 24 21 18 17 18 20 25 29 22 15 16 19
72 68 64 60 57 54 50 46 42 37 34 34 37 43 49 52 55 58 56 55 57 64 69 71 70 64 55 45 38 35 33 30 27 25 25 26 28 29 28 25 22 21 19 20 20 18 18 21 28 29 20 16 19 24

GFSWCAN_500_rhum_027.txt.gz
RH
60 52 47 40 45 97 100 96 76 76 98 45 17 13 9 9 10 8 8 10 11 9 10 10 11 11 11 10 9 8 7 6 5 5 5 5 5 6 7 12 21 24 20 21 23 22 17 22 21 22 24 24 23 22
56 49 39 38 71 100 100 88 92 92 96 81 54 15 10 10 10 13 11 8 8 9 9 10 14 15 14 12 9 8 7 7 6 6 6 5 5 5 6 7 18 28 37 32 30 27 25 24 23 23 24 23 23 27
45 51 51 43 97 100 100 99 100 100 89 34 81 81 28 12 11 10 9 9 8 9 10 10 11 12 13 12 10 10 8 7 6 5 5 7 7 8 10 11 18 37 47 40 38 37 35 31 28 26 24 24 28 39
82 84 84 97 98 100 100 100 100 100 100 65 38 74 82 58 22 12 10 9 8 8 8 8 9 10 9 9 9 9 8 6 5 4 4 5 9 9 10 11 13 32 46 46 34 41 35 32 29 24 24 26 31 39
90 97 99 86 100 100 99 100 100 100 97 81 65 57 72 76 65 48 28 15 11 9 8 7 7 6 6 6 7 7 7 6 6 6 8 9 10 11 9 10 16 46 48 38 29 28 22 22 25 27 31 38 46 51
86 93 94 100 100 100 100 100 100 100 99 88 75 67 56 49 43 40 34 34 29 22 17 13 12 9 9 9 9 10 11 12 12 14 13 13 18 17 9 10 23 38 36 31 25 27 27 29 37 47 51 55 55 56
100 100 100 100 100 100 98 100 100 100 100 100 100 100 96 79 62 52 47 41 32 26 23 19 17 16 19 22 25 25 25 24 22 21 20 24 24 22 16 15 40 34 35 36 42 49 53 59 56 58 55 58 78 80
100 100 100 97 99 99 91 99 100 100 100 100 100 100 100 99 97 92 87 81 75 64 49 34 32 37 39 39 37 36 34 31 27 25 25 27 23 26 24 49 48 50 52 58 60 59 57 49 45 49 61 86 86 88
100 100 100 100 96 72 53 53 59 57 73 94 100 98 98 91 86 81 73 60 51 51 49 50 49 50 51 52 50 48 44 38 35 35 39 38 33 30 51 52 55 56 49 40 36 34 42 69 80 89 93 99 100 94
100 100 100 100 100 100 87 62 47 42 39 42 45 45 48 57 65 61 59 46 41 38 33 34 37 35 39 39 38 35 32 28 25 26 30 25 22 29 38 36 33 44 65 65 59 59 83 87 89 100 100 99 100 100
100 100 100 100 100 100 100 100 98 78 61 51 39 37 39 41 39 35 30 25 22 20 21 24 29 29 26 25 34 36 32 46 48 55 53 45 48 66 76 77 77 77 82 87 94 94 88 86 96 93 94 98 100 100
100 100 100 100 100 100 100 100 100 100 88 99 82 58 45 36 33 28 23 20 19 19 19 35 48 51 59 71 65 70 88 78 66 59 60 56 58 68 72 72 73 78 84 87 88 86 80 84 97 100 100 100 100 100
100 95 79 77 82 99 100 100 100 100 73 57 48 54 56 52 44 37 31 30 28 49 81 100 100 100 99 100 100 100 98 90 91 80 70 64 72 76 76 82 85 85 83 80 78 74 77 89 97 100 100 100 100 100
100 100 99 93 85 78 79 100 100 100 100 100 100 84 66 54 46 39 36 48 74 87 92 95 100 100 100 100 100 100 99 92 83 75 70 76 75 73 75 77 76 73 70 72 78 87 90 100 100 100 100 100 100 100
100 100 100 99 99 97 91 82 87 99 100 100 99 100 92 90 86 79 79 93 100 100 100 100 100 97 99 98 95 96 97 90 80 78 78 81 82 81 79 77 76 70 78 86 94 100 100 100 100 100 100 100 100 100
98 100 100 100 100 100 100 100 99 100 100 100 100 98 96 98 98 100 100 99 97 99 98 98 98 97 99 100 94 98 100 95 97 98 99 94 86 80 83 94 100 100 96 94 99 100 100 100 100 100 100 100 98 84
60 62 55 72 78 85 86 84 100 100 100 100 100 100 100 100 100 100 100 100 100 100 100 98 95 100 100 100 100 100 100 100 100 100 99 100 100 100 100 100 100 100 100 100 100 100 100 100 100 100 85 64 50 31
9 9 8 8 10 16 19 23 26 29 46 65 83 78 79 86 86 87 89 90 91 82 72 63 64 67 74 82 78 68 57 54 64 92 100 100 100 99 100 100 100 100 100 100 99 93 77 54 36 21 18 19 21 27
10 10 9 8 8 7 7 7 9 7 6 6 7 7 8 9 30 47 34 17 20 25 19 11 10 13 12 10 10 13 24 49 81 100 100 100 100 100 93 84 70 51 33 25 20 18 18 18 18 20 22 25 26 28
11 10 9 9 8 8 8 8 7 8 7 7 7 7 7 8 7 7 7 7 6 6 7 7 7 7 8 9 10 10 15 33 46 51 51 50 53 54 46 34 28 23 19 17 14 14 17 23 29 30 30 31 30 31
13 13 13 13 12 10 10 10 10 10 10 10 10 9 9 9 9 9 8 8 8 8 8 8 8 8 8 10 12 18 35 46 51 54 58 52 42 36 26 25 26 25 20 16 16 19 27 34 38 38 36 33 31 32
13 13 12 12 12 12 11 12 12 12 11 12 12 12 12 12 12 10 10 9 9 9 10 11 12 16 24 38 51 58 62 62 59 50 47 45 31 20 19 18 17 18 19 22 25 27 30 32 34 34 35 36 38 36
13 13 12 12 12 12 11 12 12 12 12 11 11 11 11 10 10 10 10 10 10 12 15 20 36 60 66 68 70 67 59 58 62 59 40 25 20 19 19 20 21 23 25 30 35 40 42 43 40 37 38 39 37 37
15 14 14 14 13 12 12 11 11 10 10 10 10 11 11 11 11 11 11 12 18 32 44 53 64 84 83 76 76 72 65 56 45 30 22 22 22 23 26 27 29 32 33 34 34 35 37 37 35 32 31 31 36 42
12 12 12 12 12 11 11 11 11 11 11 12 12 12 12 12 13 16 18 34 81 83 80 79 81 86 85 77 71 66 54 44 26 23 24 26 31 31 30 32 32 32 32 33 35 36 37 40 41 40 40 40 37 31
11 11 10 10 10 10 11 11 12 13 12 12 12 12 21 47 77 72 82 100 95 85 80 86 92 87 80 79 74 61 38 28 28 31 35 37 36 35 36 36 38 49 52 49 46 44 43 40 36 31 28 27 26 24
25 26 31 32 21 31 39 59 52 46 32 66 78 90 98 100 100 98 100 100 100 93 89 86 92 88 71 51 38 33 34 37 44 44 40 37 38 39 43 47 48 42 36 32 30 28 27 26 25 25 24 22 20 20
86 94 94 100 100 100 100 100 100 100 100 100 100 100 100 100 94 96 99 100 100 100 100 99 83 66 54 44 43 49 53 49 38 36 39 44 48 47 43 39 36 31 28 26 26 25 25 25 24 22 20 19 18 14
95 92 91 99 100 100 100 100 99 99 100 100 100 100 100 100 100 100 100 100 100 94 83 72 62 62 62 61 54 40 36 38 42 46 47 45 43 42 40 35 33 30 27 26 26 24 24 23 22 21 19 16 15 14
80 91 100 100 100 94 98 100 100 100 100 100 100 97 94 93 89 84 82 80 76 72 66 59 50 42 35 34 36 41 47 51 50 49 51 53 50 43 38 35 32 28 26 26 26 26 26 23 20 19 18 16 16 16
99 100 100 98 90 88 93 93 93 89 82 74 69 67 67 64 59 55 50 44 38 34 32 33 37 41 45 48 49 49 51 54 58 58 54 46 39 33 26 21 21 24 28 29 27 23 22 21 20 20 18 18 18 20
100 100 100 100 96 91 84 80 74 70 66 59 52 48 46 41 36 34 37 38 40 42 45 48 50 56 60 62 62 63 62 57 48 42 34 25 19 18 21 24 28 31 28 26 25 23 19 19 19 20 20 20 22 23
84 83 78 75 72 69 65 62 58 54 50 44 39 41 47 51 53 54 53 52 55 58 60 59 59 58 56 53 48 44 40 35 26 20 18 19 22 27 32 36 33 30 31 30 22 19 20 20 21 22 22 22 28 28

GFSWCAN_500_rhum_033.txt.gz
RH
100 100 99 93 86 76 69 73 84 94 100 58 57 70 98 67 31 29 24 33 35 26 28 22 21 17 18 17 17 16 15 13 12 10 8 8 7 7 7 8 8 8 8 9 10 9 11 13 13 14 15 18 22 30
97 95 94 83 73 87 99 99 96 100 93 72 72 67 97 58 29 26 26 40 39 28 27 24 22 22 20 17 17 16 13 12 12 12 10 9 8 8 8 8 8 8 8 8 8 10 12 9 10 12 17 27 34 35
82 68 62 49 48 59 86 100 100 100 100 96 82 80 96 37 26 24 45 69 52 50 26 24 23 22 20 19 17 15 13 14 14 13 12 11 10 9 9 9 9 9 9 8 8 16 12 8 9 13 18 25 33 36
50 45 62 81 65 81 90 98 99 97 88 64 70 83 74 29 26 28 50 92 68 42 44 22 22 21 20 18 16 14 14 13 13 14 15 15 13 11 10 10 9 10 10 9 8 10 8 15 19 21 22 25 27 30
62 51 39 39 49 66 87 99 100 87 88 98 58 33 26 47 88 100 77 68 59 29 19 20 20 18 17 16 15 13 12 11 13 13 12 11 11 10 8 7 11 14 13 10 10 17 19 23 26 26 26 28 31 37
47 47 48 61 74 90 96 99 100 100 99 92 61 31 25 72 95 100 100 100 98 69 38 22 20 23 17 15 14 14 12 11 10 10 9 8 8 7 6 8 22 23 23 25 25 25 26 27 32 38 45 52 58 59
44 41 44 47 58 87 98 100 100 100 100 100 79 40 53 43 65 90 97 100 93 88 62 37 31 26 22 22 20 17 14 11 9 8 7 8 9 11 11 16 28 30 33 36 39 41 45 45 43 41 40 40 39 52
45 47 44 62 94 100 93 97 98 100 100 99 100 100 98 95 73 65 70 52 40 32 28 25 22 21 20 16 14 13 12 11 12 13 14 16 16 22 22 40 49 50 51 50 48 42 36 36 46 68 78 86 89 87
62 86 69 87 100 100 100 100 100 93 92 93 99 95 85 90 97 95 87 74 57 44 32 30 33 41 30 32 29 26 25 22 22 24 33 38 41 44 47 44 39 35 34 34 44 50 62 81 87 87 90 90 94 96
92 100 100 100 93 98 100 100 100 100 100 100 98 97 86 80 74 70 64 58 55 51 45 48 59 63 61 69 67 61 62 59 54 52 50 45 41 38 38 34 30 35 63 80 81 78 87 98 99 97 95 96 100 100
100 100 100 100 100 100 100 100 100 99 100 100 100 100 100 97 98 97 91 92 91 91 97 100 100 99 92 80 70 62 54 48 43 38 37 32 29 29 29 38 59 86 100 100 100 100 98 92 89 89 89 88 88 88
100 100 100 100 100 100 98 100 100 99 97 95 98 100 100 100 100 100 100 100 100 100 100 100 100 96 89 81 66 56 42 30 25 24 24 23 40 72 96 100 100 99 97 93 87 85 83 82 81 81 82 82 78 73
100 100 100 100 100 100 100 100 100 100 100 100 100 100 100 98 93 93 94 95 96 94 74 58 49 42 38 38 33 34 29 28 43 53 66 86 100 100 100 99 93 88 86 84 80 74 71 74 75 73 68 67 89 100
98 98 100 100 100 100 100 100 100 100 100 100 100 91 87 78 66 59 52 46 44 43 40 42 43 39 38 38 38 38 51 64 69 84 96 98 98 97 92 88 85 83 79 77 79 79 71 57 56 62 79 99 100 100
99 100 100 97 98 100 100 100 100 100 100 100 98 78 63 68 74 85 90 84 87 93 96 92 75 71 69 63 78 92 98 95 92 96 100 95 92 91 88 82 80 78 74 65 55 46 53 76 98 99 100 100 99 94
100 100 100 100 100 99 99 100 100 97 94 86 76 75 81 85 92 88 80 84 96 96 88 76 80 92 98 98 97 100 100 99 99 97 92 92 90 88 82 69 58 42 31 36 67 90 98 100 100 98 83 57 38 30
100 100 100 100 100 100 100 100 100 100 99 96 92 86 82 89 93 95 96 100 100 100 100 99 100 100 98 99 100 100 100 99 95 90 89 80 69 50 26 12 11 13 22 40 81 100 100 82 66 54 39 31 31 32
100 100 100 100 100 100 100 100 100 100 100 100 95 92 96 99 100 100 100 100 100 100 100 100 100 100 100 100 99 96 90 77 55 29 14 8 7 6 7 7 8 9 16 38 51 57 59 58 47 38 28 32 34 23
100 100 100 100 100 100 100 100 100 100 100 100 100 100 100 100 100 100 100 100 100 100 100 100 98 87 70 50 34 19 11 7 7 7 7 7 8 8 8 10 13 19 31 51 61 63 56 50 38 31 34 33 26 19
77 91 90 94 98 97 98 96 97 98 98 95 97 97 99 100 98 96 91 84 73 53 33 17 13 11 9 8 7 7 7 8 8 8 8 9 9 10 15 29 47 60 66 67 60 55 48 43 34 27 27 24 21 21
18 16 17 22 29 40 44 38 38 33 24 19 17 16 16 16 18 14 12 12 10 8 8 8 9 9 10 9 9 9 9 9 9 9 10 11 17 33 52 56 68 74 68 65 63 56 55 49 36 29 26 24 24 23
15 15 15 14 13 12 13 12 12 11 11 10 9 10 10 10 9 10 10 9 10 10 10 10 10 9 9 9 9 9 10 10 10 11 14 24 45 55 70 78 77 78 77 75 73 70 62 52 40 33 29 27 26 25
16 15 15 14 14 14 13 13 13 14 13 13 13 12 12 12 12 12 11 11 11 11 10 10 10 10 10 10 10 10 11 12 16 24 39 48 60 80 90 90 91 93 93 86 72 60 49 45 42 36 30 25 27 32
21 19 19 18 18 17 16 16 16 15 15 14 14 14 14 14 14 13 13 13 13 13 12 12 12 11 11 12 12 13 15 30 44 53 70 87 98 100 100 98 97 94 83 66 60 60 55 46 35 27 28 32 34 33
22 20 20 19 18 17 17 16 15 15 15 14 14 14 14 14 14 14 14 13 13 13 13 12 13 14 14 16 18 21 33 63 85 94 98 98 93 97 100 100 90 83 79 74 64 48 35 29 31 35 37 37 37 35
14 14 14 14 13 13 12 11 11 11 10 10 10 10 10 10 10 10 11 11 12 12 14 16 22 36 53 79 91 99 100 100 100 100 100 100 100 99 97 93 87 74 55 39 29 29 34 38 38 38 38 33 23 16
13 13 12 12 12 11 11 10 11 11 11 11 11 12 13 14 16 21 29 28 31 36 57 83 96 100 100 100 100 100 100 100 100 100 100 100 98 90 73 55 39 32 30 34 38 35 31 34 36 31 21 16 17 22
36 41 35 41 39 45 46 48 49 57 62 70 69 74 77 86 95 100 100 100 100 100 100 100 100 100 100 100 100 100 100 100 100 90 74 55 41 33 31 32 37 42 39 30 28 32 35 31 22 17 18 23 29 30
50 61 62 55 44 42 52 64 77 74 62 80 85 89 94 94 96 94 93 93 99 100 100 100 100 100 99 96 82 63 47 41 36 34 33 35 38 40 43 40 31 28 32 37 35 28 21 18 19 23 31 34 33 31
55 56 48 37 36 36 41 54 73 81 92 98 100 100 100 100 100 100 99 96 90 81 70 61 53 47 43 40 39 40 42 45 47 47 46 44 40 34 30 32 36 35 29 23 21 21 24 28 31 35 36 35 33 24
76 74 74 72 69 69 72 78 84 90 96 95 93 92 91 88 82 76 71 67 62 57 51 45 43 45 49 52 53 53 54 58 57 50 38 32 33 36 37 31 24 20 21 23 25 31 34 35 36 37 38 34 25 23
67 71 66 66 69 67 66 69 68 65 61 60 59 52 49 50 51 49 48 46 45 45 47 51 52 54 56 54 53 58 61 55 39 36 38 40 35 26 19 19 21 22 26 31 34 35 35 36 36 33 26 25 25 25
62 61 60 59 58 54 46 40 34 30 28 26 25 27 30 34 39 43 43 46 50 54 55 57 58 56 56 63 66 59 43 41 44 43 35 25 19 19 21 25 28 31 32 32 31 29 26 24 24 24 25 25 24 24